Location: Arena
(42.5007°N, 9.4650°E)
Time: 09:46:31
(UTC+00:00)

Cosmos 2369 - Pass Details

Date: 09 April 2020
Orbit: 840 x 855 km, 71.0° (Epoch: 04 June)

Event Time Altitude Azimuth Distance (km) Brightness Sun altitude
Rises 21:08:16 0° 335° (NNW) 3,403 7.9 -30.8°
Reaches altitude 10° 21:10:43 10° 336° (NNW) 2,465 6.9 -31.1°
Enters shadow 21:15:12 58° 342° (NNW) 979 4.1 -31.6°
